Location: *
(51.1248°S, 108.4023°W)
Time: 03:41:45
(UTC+00:00)

Cosmos 1943 Rocket - Pass Details

Date: 15 June 2021
Orbit: 813 x 843 km, 71.0° (Epoch: 31 July)

Event Time Altitude Azimuth Distance (km) Brightness Sun altitude
Exits shadow 13:44:40 16° 226° (SW) 2,088 3.7 -13.4°
Maximum altitude 13:45:57 17° 210° (SSW) 2,028 3.7 -13.2°
Drops below altitude 10° 13:49:40 10° 169° (S) 2,501 4.5 -12.7°
Sets 13:53:04 0° 149° (SSE) 3,441 5.5 -12.2°
